Starlink 30483

operational
NORAD ID: 57914 Int'l Des: 2023-147 Owner: SPXS Country: US Constellation: starlink
LEOCIRCULAR

Über Starlink 30483

Beschreibung wird geladen...

Live-Position

3D-Globus wird geladen...

Nächste Überflüge

Höhenverlauf

Altitude vs Time

uPlot chart will show altitude changes over time

Zweizeiliger Elementsatz

1 57914U 23147B 25354.14390146 -.00005920 00000-0 -20563-3 0 9997
2 57914 43.0037 268.8619 0001752 267.9936 92.0715 15.27600902126142
Epoch: 20. Dez. 2025 • Age: 14 hours

Aktueller Status

Höhe 492.6 km
Geschwindigkeit 7.62 km/s
Subsatellitenpunkt -36.52°S, 135.79°W
Startdatum 24. Sept. 2023
Alter 2.2 years
Typ internet

Technische Details

Klassifizierung Payload
Masse 730.00 kg
Trockenmasse 700.00 kg
Gesamtmasse 730.00 kg
Länge 0.30 m
Durchmesser 4.10 m
Spannweite 29.00 m
Form Box + pan
Hersteller SPXS
Bus-Typ Starlink V2M
Phasenstatus In Orbit
Besitzer/Staat SPXS/US

Große Konstellationen

Loading constellations...